Time,TemperatureF,DewpointF,PressureIn,WindDirection,WindDirectionDegrees,WindSpeedMPH,WindSpeedGustMPH,Humidity,HourlyPrecipIn,Conditions,Clouds,dailyrainin,SoftwareType,DateUTC
2013-08-28 10:14:00,70.0,59.0,29.75,WSW,248,1.0,3.0,68,0.00,,,0.00,,2013-08-28 17:14:00,
2013-08-28 10:24:00,71.0,60.0,29.75,WSW,240,1.0,3.0,68,0.00,,,0.00,,2013-08-28 17:24:00,
2013-08-28 10:52:00,72.0,60.0,29.75,SSE,156,0.0,4.0,65,0.00,,,0.00,,2013-08-28 17:52:00,
2013-08-28 11:12:00,73.0,60.0,29.75,NE,37,2.0,4.0,64,0.00,,,0.00,,2013-08-28 18:12:00,
2013-08-28 11:21:00,74.0,61.0,29.75,West,274,6.0,9.0,65,0.00,,,0.00,,2013-08-28 18:21:00,
2013-08-28 11:31:00,74.0,61.0,29.75,West,274,6.0,9.0,65,0.00,,,0.00,,2013-08-28 18:31:00,
2013-08-28 11:42:00,74.0,61.0,29.75,West,274,6.0,9.0,65,0.00,,,0.00,,2013-08-28 18:42:00,
2013-08-28 11:52:00,74.0,61.0,29.75,SE,142,2.0,7.0,64,0.00,,,0.00,,2013-08-28 18:52:00,
2013-08-28 12:12:00,75.0,62.0,29.75,WNW,288,2.0,7.0,63,0.00,,,0.00,,2013-08-28 19:12:00,
2013-08-28 12:21:00,76.0,62.0,29.75,East,101,2.0,8.0,61,0.00,,,0.00,,2013-08-28 19:21:00,
2013-08-28 12:42:00,78.0,63.0,29.77,West,281,3.0,6.0,60,0.00,,,0.00,,2013-08-28 19:42:00,
2013-08-28 12:52:00,78.0,63.0,29.74,NW,316,1.0,6.0,60,0.00,,,0.00,,2013-08-28 19:52:00,
2013-08-28 13:12:00,77.0,62.0,29.74,SW,217,2.0,6.0,59,0.00,,,0.00,,2013-08-28 20:12:00,
2013-08-28 13:22:00,77.0,62.0,29.74,NW,315,5.0,7.0,59,0.00,,,0.00,,2013-08-28 20:22:00,
2013-08-28 13:43:00,79.0,62.0,29.76,South,187,2.0,5.0,56,0.00,,,0.00,,2013-08-28 20:43:00,
2013-08-28 13:52:00,78.0,61.0,29.74,WSW,240,1.0,6.0,56,0.00,,,0.00,,2013-08-28 20:52:00,
2013-08-28 14:11:00,79.0,62.0,29.73,North,360,3.0,6.0,56,0.00,,,0.00,,2013-08-28 21:11:00,
2013-08-28 14:22:00,80.0,61.0,29.73,NW,323,5.0,9.0,53,0.00,,,0.00,,2013-08-28 21:22:00,
2013-08-28 14:57:00,80.0,61.0,29.73,SSE,165,1.0,6.0,53,0.00,,,0.00,,2013-08-28 21:57:00,
2013-08-28 15:15:00,81.0,61.0,29.73,South,191,2.0,8.0,51,0.00,,,0.00,,2013-08-28 22:15:00,
2013-08-28 15:25:00,82.0,61.0,29.72,WSW,257,4.0,10.0,50,0.00,,,0.00,,2013-08-28 22:25:00,
2013-08-28 15:43:00,82.0,61.0,29.74,West,269,3.0,9.0,50,0.00,,,0.00,,2013-08-28 22:43:00,
2013-08-28 15:54:00,81.0,61.0,29.72,West,269,5.0,9.0,50,0.00,,,0.00,,2013-08-28 22:54:00,
2013-08-28 16:13:00,80.0,61.0,29.72,WNW,301,3.0,8.0,53,0.00,,,0.00,,2013-08-28 23:13:00,
2013-08-28 16:22:00,80.0,61.0,29.72,WNW,288,6.0,11.0,53,0.00,,,0.00,,2013-08-28 23:22:00,
2013-08-28 16:42:00,81.0,62.0,29.74,NNW,333,4.0,8.0,53,0.00,,,0.00,,2013-08-28 23:42:00,
2013-08-28 16:53:00,80.0,61.0,29.72,WNW,287,4.0,9.0,53,0.00,,,0.00,,2013-08-28 23:53:00,
2013-08-28 17:11:00,80.0,61.0,29.72,WNW,283,6.0,9.0,52,0.00,,,0.00,,2013-08-29 00:11:00,
2013-08-28 18:12:00,80.0,61.0,29.72,WNW,283,3.0,9.0,52,0.00,,,0.00,,2013-08-29 01:12:00,
2013-08-28 18:22:00,80.0,62.0,29.72,SW,225,1.0,8.0,55,0.00,,,0.00,,2013-08-29 01:22:00,
2013-08-28 18:42:00,80.0,62.0,29.75,WNW,295,1.0,3.0,54,0.00,,,0.00,,2013-08-29 01:42:00,
2013-08-28 18:52:00,78.0,61.0,29.72,West,264,2.0,3.0,56,0.00,,,0.00,,2013-08-29 01:52:00,
2013-08-28 19:11:00,77.0,62.0,29.73,WSW,253,1.0,4.0,59,0.00,,,0.00,,2013-08-29 02:11:00,
2013-08-28 19:22:00,77.0,63.0,29.74,West,273,6.0,11.0,61,0.00,,,0.00,,2013-08-29 02:22:00,
2013-08-28 20:11:00,74.0,62.0,29.76,WSW,257,2.0,6.0,67,0.00,,,0.00,,2013-08-29 03:11:00,
2013-08-28 20:22:00,73.0,62.0,29.75,SSW,200,0.0,5.0,68,0.00,,,0.00,,2013-08-29 03:22:00,
2013-08-28 20:45:00,72.0,63.0,29.78,SE,135,0.0,2.0,73,0.00,,,0.00,,2013-08-29 03:45:00,
2013-08-28 20:56:00,71.0,62.0,29.76,SE,124,0.0,1.0,74,0.00,,,0.00,,2013-08-29 03:56:00,
2013-08-28 21:17:00,71.0,63.0,29.77,SSE,153,0.0,2.0,76,0.00,,,0.00,,2013-08-29 04:17:00,
2013-08-28 21:28:00,70.0,62.0,29.77,SSW,195,0.0,0.0,77,0.00,,,0.00,,2013-08-29 04:28:00,
2013-08-28 21:45:00,70.0,63.0,29.80,WSW,250,0.0,0.0,78,0.00,,,0.00,,2013-08-29 04:45:00,
2013-08-28 21:54:00,68.0,62.0,29.78,WSW,250,0.0,0.0,80,0.00,,,0.00,,2013-08-29 04:54:00,
2013-08-28 22:14:00,67.0,62.0,29.78,WSW,250,0.0,0.0,83,0.00,,,0.00,,2013-08-29 05:14:00,
2013-08-28 22:23:00,67.0,62.0,29.79,NE,36,0.0,2.0,84,0.00,,,0.00,,2013-08-29 05:23:00,
2013-08-28 22:42:00,67.0,62.0,29.81,ESE,108,0.0,1.0,85,0.00,,,0.00,,2013-08-29 05:42:00,
2013-08-28 22:52:00,66.0,62.0,29.79,ESE,109,0.0,0.0,87,0.00,,,0.00,,2013-08-29 05:52:00,
2013-08-28 23:12:00,65.0,61.0,29.79,ESE,108,0.0,1.0,88,0.00,,,0.00,,2013-08-29 06:12:00,
2013-08-28 23:21:00,65.0,62.0,29.79,ESE,108,0.0,0.0,89,0.00,,,0.00,,2013-08-29 06:21:00,
2013-08-28 23:43:00,65.0,62.0,29.81,ESE,105,0.0,0.0,90,0.00,,,0.00,,2013-08-29 06:43:00,
2013-08-28 23:52:00,64.0,61.0,29.78,East,98,0.0,1.0,91,0.00,,,0.00,,2013-08-29 06:52:00,